Temp
58 59 58 57 55 53 50 47 53 65 64 56 45 47 55 61 65 69 62 61 58 54 55 50 50 52 58 67 64 60 57 49 46 55 61 64 58 51 51 48 46 46 47 51
58 59 57 56 54 53 47 44 48 64 65 50 48 52 61 66 64 63 61 60 60 59 51 48 53 56 64 67 67 59 60 50 43 49 55 60 58 58 49 48 47 45 46 52
58 58 57 55 55 54 47 46 49 56 58 53 54 51 58 60 71 67 66 62 60 55 49 48 50 54 62 63 64 68 62 50 50 42 49 52 51 56 56 50 46 46 50 57
59 58 58 56 55 54 48 46 49 52 49 54 53 55 58 62 61 66 63 59 59 55 45 46 48 51 55 62 65 62 59 51 49 51 57 58 54 55 55 50 47 48 54 56
58 59 58 57 56 53 48 47 49 52 51 54 53 51 55 61 64 63 58 59 62 57 52 54 51 51 49 50 56 55 56 51 49 48 58 60 53 56 57 55 53 53 53 53
58 59 58 57 56 52 46 51 53 52 49 52 52 54 57 64 67 64 67 64 60 58 60 61 56 55 53 51 49 51 49 50 48 42 50 58 48 51 54 54 56 52 47 52
58 59 58 58 57 55 51 47 48 48 49 53 57 61 63 66 65 63 67 64 58 64 65 61 56 52 50 58 53 51 48 45 45 42 44 41 50 55 58 57 56 56 57 59
58 59 58 58 57 56 54 53 47 47 46 54 58 62 62 64 61 62 65 65 64 62 59 50 46 46 48 51 55 49 48 44 40 39 37 45 56 56 55 50 51 57 56 59
58 58 58 58 58 57 55 54 51 47 47 51 62 60 62 58 54 58 60 65 61 60 49 47 38 37 40 44 50 47 49 46 43 38 37 37 49 59 61 59 45 57 57 59
58 59 59 59 58 57 55 52 50 48 46 53 58 56 57 62 55 55 55 59 58 55 46 43 39 39 45 40 41 41 42 40 39 39 36 43 53 59 61 45 48 58 58 59
58 58 58 58 58 58 55 51 51 49 46 51 62 67 61 60 55 53 58 58 57 50 46 45 41 40 41 40 44 45 45 39 37 36 34 37 57 57 51 54 55 61 57 58
57 58 58 58 58 57 57 49 53 54 48 52 62 69 71 69 67 59 54 58 54 55 48 45 43 42 40 40 40 47 44 47 43 44 43 51 54 54 58 59 57 58 59 60
57 57 58 58 57 57 57 51 48 48 49 54 53 62 71 67 69 68 60 56 60 55 55 49 47 46 44 40 42 46 49 51 46 48 49 54 56 58 60 62 61 61 61 61
57 57 58 58 57 57 57 52 48 47 48 45 51 69 66 69 68 71 68 65 61 58 55 50 48 48 49 45 49 48 52 53 48 48 51 56 60 61 62 62 63 64 63 63
57 57 57 57 57 57 56 53 51 51 49 45 49 59 69 68 68 72 66 63 59 56 55 51 51 49 50 46 48 48 53 51 48 47 55 54 58 61 63 62 62 62 62 61
56 57 56 56 56 56 50 46 49 53 52 48 47 57 62 64 67 68 64 61 56 55 54 51 50 52 51 46 43 53 54 55 56 57 57 58 61 63 64 62 61 62 62 62
56 56 56 56 55 51 46 49 51 52 51 49 47 49 60 65 65 61 60 58 55 56 51 51 52 51 49 44 44 56 57 57 58 59 61 57 60 60 63 64 63 62 62 61
56 56 56 55 55 52 48 54 56 52 49 51 46 48 53 60 56 56 56 55 54 54 52 50 51 50 47 45 52 53 57 57 60 61 60 60 59 59 60 62 62 60 58 59
55 55 55 51 47 45 50 60 58 55 54 46 45 44 46 58 54 55 55 53 51 51 51 50 52 44 44 51 53 55 57 59 60 60 60 60 59 59 59 60 59 57 57 58
54 52 47 44 49 59 59 54 51 50 50 48 45 49 48 53 53 51 52 51 50 48 51 50 48 45 51 53 57 58 58 60 60 58 55 55 55 57 57 58 60 59 58 56
51 47 45 51 57 54 51 48 46 48 46 45 49 51 49 53 50 50 51 50 47 45 48 48 42 42 51 57 57 57 60 60 61 65 63 61 61 57 56 57 60 62 60 59
50 50 51 52 51 47 46 43 46 45 44 48 51 51 54 51 53 50 50 46 48 45 48 46 39 47 53 55 58 58 58 61 62 62 61 60 60 59 59 58 58 60 57 56
52 51 49 46 46 37 41 39 41 42 49 50 49 48 49 50 50 47 48 45 44 49 45 43 44 50 53 55 57 58 58 61 62 61 60 58 57 58 59 56 56 57 55 56
48 47 38 40 39 41 43 43 45 50 50 52 50 48 47 48 48 47 48 47 48 43 39 45 50 50 54 53 57 58 58 59 60 58 57 57 57 55 56 58 58 56 55 51
47 47 39 42 46 46 48 49 49 50 51 48 48 50 50 46 46 46 46 45 43 44 46 51 50 54 52 53 55 57 57 57 55 56 57 56 56 56 53 54 54 54 52 51
47 46 44 45 43 45 47 50 50 52 50 51 52 49 46 46 46 45 45 45 43 49 50 49 49 51 52 54 54 57 55 55 55 56 56 56 56 55 54 52 54 53 53 51
47 44 45 46 46 44 46 48 51 53 50 47 49 46 46 48 44 43 47 46 48 49 51 51 51 51 53 53 54 54 54 54 55 55 56 56 55 55 54 51 50 52 51 51
MSLP
1019.27 1018.75 1018.25 1017.62 1016.96 1015.90 1015.09 1015.28 1014.05 1011.24 1011.22 1012.08 1013.02 1012.83 1011.32 1010.06 1008.94 1008.20 1008.28 1008.74 1009.16 1009.77 1010.55 1011.12 1011.01 1010.76 1010.17 1009.76 1009.50 1009.42 1009.86 1010.42 1009.86 1008.40 1007.76 1007.65 1007.79 1008.87 1009.34 1010.40 1011.45 1011.33 1010.70 1008.37
1019.09 1018.66 1018.24 1017.75 1017.29 1017.03 1017.11 1016.42 1014.46 1011.73 1011.68 1012.39 1012.85 1011.87 1010.74 1009.81 1008.87 1008.23 1008.41 1008.65 1009.09 1009.94 1011.01 1011.67 1011.44 1010.89 1010.12 1009.95 1009.67 1009.57 1009.54 1010.66 1010.30 1009.00 1008.10 1008.32 1008.96 1009.17 1009.04 1009.58 1010.18 1010.60 1010.20 1007.95
1018.91 1018.50 1018.16 1017.81 1017.42 1017.18 1017.34 1016.72 1015.14 1013.10 1012.47 1012.09 1012.02 1011.76 1010.67 1009.45 1008.28 1008.01 1008.18 1008.70 1009.29 1010.27 1011.41 1011.89 1011.93 1011.55 1010.68 1010.33 1010.08 1009.88 1009.82 1011.05 1011.31 1010.90 1010.12 1010.31 1010.14 1010.01 1009.38 1009.52 1010.54 1010.37 1009.22 1008.04
1018.70 1018.36 1018.04 1017.70 1017.35 1017.07 1017.25 1016.71 1015.50 1014.08 1013.15 1012.59 1012.03 1011.38 1010.41 1009.36 1008.76 1008.23 1008.09 1009.06 1009.45 1010.28 1011.60 1012.01 1011.99 1011.87 1011.48 1010.59 1010.17 1010.27 1010.41 1011.37 1011.65 1010.94 1010.70 1010.55 1010.87 1010.49 1010.11 1010.17 1010.53 1010.51 1008.94 1008.84
1018.49 1018.22 1017.98 1017.60 1017.28 1016.99 1017.03 1016.68 1015.85 1014.42 1013.55 1012.56 1011.88 1010.97 1010.04 1009.04 1008.22 1008.40 1008.53 1009.09 1009.59 1009.89 1010.64 1011.01 1011.45 1011.86 1012.10 1011.46 1011.24 1011.35 1011.17 1011.51 1012.01 1011.94 1011.25 1010.83 1011.23 1010.97 1010.62 1010.99 1011.08 1010.34 1010.12 1009.85
1018.11 1017.93 1017.74 1017.57 1017.29 1017.08 1017.11 1016.36 1015.76 1015.25 1013.96 1012.93 1012.02 1010.94 1009.96 1008.46 1007.84 1008.11 1007.96 1008.71 1009.30 1009.63 1009.83 1010.18 1010.82 1011.33 1011.59 1012.00 1012.24 1012.49 1012.50 1012.63 1012.95 1013.00 1012.13 1011.34 1011.69 1011.78 1011.45 1011.63 1011.81 1011.51 1011.08 1011.29
1017.87 1017.65 1017.49 1017.40 1017.28 1017.22 1017.38 1017.19 1016.85 1016.11 1014.70 1013.22 1011.85 1010.66 1009.66 1008.29 1007.95 1008.00 1008.30 1008.61 1008.98 1009.24 1009.38 1010.56 1011.42 1012.01 1011.96 1012.17 1012.50 1012.80 1013.23 1013.63 1014.01 1014.08 1013.32 1012.81 1011.76 1011.65 1011.76 1011.66 1012.10 1011.93 1011.52 1011.48
1017.61 1017.40 1017.19 1017.14 1017.03 1017.03 1017.23 1017.13 1017.21 1016.68 1015.33 1013.43 1011.68 1010.63 1009.52 1008.54 1008.27 1008.27 1008.26 1008.38 1008.70 1009.18 1010.25 1011.79 1012.67 1013.13 1012.94 1013.18 1013.30 1013.42 1013.73 1014.15 1015.14 1015.12 1014.67 1013.64 1012.07 1011.42 1011.52 1011.67 1012.39 1012.28 1011.92 1011.85
1017.23 1017.09 1016.91 1016.83 1016.70 1016.76 1016.97 1016.96 1017.11 1016.92 1015.98 1013.16 1011.83 1010.66 1009.84 1009.38 1008.99 1008.70 1008.49 1008.43 1008.88 1009.92 1011.74 1013.18 1014.30 1014.78 1014.83 1014.58 1014.08 1013.77 1014.26 1014.36 1015.21 1015.97 1015.38 1014.14 1012.05 1011.42 1011.39 1011.56 1012.50 1012.49 1012.15 1012.14
1016.88 1016.66 1016.64 1016.45 1016.35 1016.39 1016.64 1016.68 1016.80 1016.66 1015.86 1012.94 1011.79 1010.81 1010.06 1009.67 1009.73 1009.36 1009.08 1009.16 1009.70 1010.49 1012.67 1014.30 1015.38 1015.75 1015.62 1015.34 1014.89 1014.75 1015.17 1015.79 1016.32 1016.26 1015.47 1013.84 1012.15 1011.49 1011.65 1011.96 1012.41 1012.26 1012.41 1012.23
1016.43 1016.31 1016.31 1016.11 1016.03 1016.07 1016.36 1016.19 1016.28 1016.35 1015.56 1013.20 1011.67 1010.76 1010.11 1010.01 1009.95 1009.85 1009.40 1009.93 1010.63 1011.77 1013.19 1014.63 1015.59 1015.95 1016.02 1015.78 1015.26 1014.80 1015.04 1015.65 1016.08 1016.14 1015.20 1013.73 1012.10 1011.91 1012.01 1011.36 1011.52 1011.94 1012.53 1012.54
1015.99 1015.90 1015.85 1015.71 1015.65 1015.76 1016.01 1016.30 1015.67 1015.87 1015.87 1013.24 1011.39 1010.34 1009.38 1009.57 1009.35 1009.53 1009.52 1009.70 1010.28 1011.10 1012.66 1014.25 1015.21 1015.81 1016.05 1015.78 1015.42 1014.57 1014.76 1014.27 1014.50 1014.80 1014.03 1013.00 1012.32 1011.82 1011.19 1011.23 1011.56 1012.06 1012.24 1012.83
1015.56 1015.50 1015.44 1015.32 1015.22 1015.44 1015.66 1015.87 1015.85 1015.73 1015.24 1012.84 1011.53 1009.18 1007.98 1008.26 1008.43 1008.31 1008.95 1009.55 1009.55 1010.46 1010.91 1012.87 1014.17 1014.90 1015.15 1015.32 1014.86 1014.12 1013.63 1013.35 1013.86 1014.00 1013.56 1012.83 1012.01 1011.86 1011.57 1011.39 1011.55 1011.83 1012.20 1012.68
1015.25 1015.16 1015.10 1014.90 1014.99 1015.05 1015.18 1015.45 1015.51 1015.54 1014.99 1013.74 1010.61 1008.74 1008.18 1007.34 1007.67 1007.73 1007.83 1007.93 1008.96 1009.91 1010.88 1012.38 1013.51 1013.95 1013.72 1013.78 1013.37 1013.45 1012.87 1013.13 1013.38 1013.58 1013.19 1012.91 1012.47 1012.23 1012.03 1011.91 1011.68 1012.06 1012.53 1012.76
1014.98 1014.86 1014.75 1014.75 1014.76 1014.66 1014.80 1014.90 1014.71 1014.70 1015.08 1013.80 1011.59 1009.40 1006.83 1006.81 1007.19 1007.30 1007.38 1007.91 1009.03 1010.38 1011.67 1012.74 1013.19 1012.87 1013.12 1013.32 1013.14 1012.81 1012.22 1012.25 1012.55 1012.50 1012.08 1012.04 1012.14 1011.98 1012.09 1011.98 1012.19 1012.31 1012.50 1013.07
1014.62 1014.62 1014.57 1014.58 1014.50 1014.42 1014.83 1014.64 1013.87 1013.99 1014.38 1013.95 1012.18 1009.37 1007.77 1007.03 1006.84 1007.21 1007.84 1008.37 1009.30 1010.42 1011.38 1012.22 1012.27 1011.91 1012.19 1013.04 1013.20 1011.77 1011.22 1011.08 1010.88 1010.97 1011.21 1011.43 1011.51 1011.99 1011.85 1012.13 1012.56 1012.78 1012.90 1013.18
1014.34 1014.44 1014.37 1014.36 1014.20 1014.42 1014.43 1013.86 1013.82 1013.66 1013.91 1013.65 1012.38 1010.27 1007.99 1007.22 1007.28 1007.88 1008.37 1008.73 1009.53 1010.21 1011.39 1011.91 1012.00 1012.01 1012.16 1012.54 1012.57 1011.20 1010.61 1010.48 1010.42 1010.45 1010.80 1011.91 1011.93 1012.06 1012.02 1012.34 1012.97 1013.00 1013.27 1013.62
1014.15 1014.17 1014.16 1013.99 1014.04 1014.05 1013.60 1011.98 1012.29 1013.54 1013.66 1013.25 1012.52 1010.60 1009.09 1007.67 1007.84 1008.48 1008.66 1009.36 1010.05 1010.62 1011.29 1011.78 1011.91 1012.08 1012.23 1012.24 1011.33 1010.90 1010.52 1010.46 1010.35 1010.51 1010.41 1010.89 1011.63 1012.06 1012.45 1012.80 1013.14 1013.74 1014.20 1014.56
1014.01 1013.97 1013.91 1014.05 1014.01 1013.60 1012.12 1011.26 1011.60 1012.35 1013.07 1012.78 1012.33 1011.37 1009.87 1008.34 1008.42 1008.49 1009.06 1009.53 1010.92 1011.30 1011.42 1011.62 1011.84 1012.46 1012.08 1011.02 1010.73 1010.62 1010.37 1010.30 1010.34 1010.59 1010.83 1011.32 1011.91 1012.44 1012.91 1013.27 1013.88 1014.43 1015.11 1015.30
1013.80 1013.91 1013.95 1013.55 1012.47 1011.62 1011.72 1011.84 1012.17 1012.46 1012.31 1012.41 1012.09 1011.08 1010.34 1009.70 1009.39 1009.49 1009.88 1010.38 1010.95 1011.57 1011.34 1011.39 1011.56 1011.95 1010.94 1010.23 1009.85 1009.59 1009.95 1009.91 1010.10 1010.86 1011.68 1012.06 1012.73 1012.94 1013.27 1013.44 1013.88 1014.46 1015.23 1015.85
1013.78 1013.82 1013.51 1012.28 1011.56 1011.64 1011.81 1012.09 1012.24 1012.19 1012.25 1011.73 1010.90 1010.57 1010.55 1010.08 1010.15 1010.34 1010.63 1010.87 1011.27 1011.48 1011.68 1011.66 1011.55 1011.19 1010.43 1009.63 1009.67 1009.37 1009.34 1009.57 1009.72 1009.71 1010.34 1011.04 1011.70 1012.73 1013.33 1013.95 1014.20 1014.68 1015.27 1016.02
1013.76 1013.75 1013.30 1012.72 1012.02 1012.10 1012.12 1012.11 1011.99 1011.79 1011.32 1010.47 1010.07 1009.81 1009.84 1010.20 1010.18 1011.49 1011.66 1011.58 1011.51 1011.33 1011.42 1011.50 1011.25 1010.10 1009.19 1009.03 1009.11 1009.11 1009.23 1009.41 1009.74 1009.92 1010.51 1011.03 1011.66 1012.34 1013.03 1013.77 1014.52 1015.16 1015.78 1016.48
1013.49 1013.38 1012.96 1012.67 1012.48 1012.49 1012.11 1011.68 1011.32 1010.77 1009.82 1009.48 1009.58 1009.98 1009.87 1010.12 1010.07 1010.92 1011.39 1012.20 1011.94 1011.12 1011.18 1010.87 1010.06 1009.06 1008.67 1008.57 1008.59 1008.93 1009.12 1009.35 1009.53 1010.05 1010.49 1011.03 1011.81 1012.55 1013.11 1014.14 1014.81 1015.44 1016.24 1016.89
1013.39 1012.99 1012.92 1012.83 1012.16 1011.55 1010.84 1010.52 1010.18 1009.53 1009.34 1009.13 1009.31 1009.77 1010.00 1010.18 1010.35 1010.71 1011.00 1011.22 1011.10 1011.13 1010.95 1010.09 1009.18 1008.41 1007.99 1008.05 1008.21 1008.70 1009.14 1009.46 1009.70 1010.18 1010.85 1011.48 1012.15 1013.08 1013.80 1014.17 1014.75 1015.61 1016.66 1017.49
1013.08 1012.86 1012.51 1011.94 1011.21 1010.75 1010.31 1009.95 1009.73 1009.36 1008.98 1009.22 1009.38 1009.68 1009.88 1010.31 1010.51 1010.53 1010.73 1010.96 1010.54 1010.21 1009.59 1008.64 1007.88 1007.32 1007.60 1008.04 1008.18 1008.49 1008.95 1009.50 1010.03 1010.45 1011.14 1011.90 1012.50 1013.28 1014.25 1014.83 1015.32 1016.04 1016.93 1017.68
1013.00 1012.63 1012.07 1011.26 1011.10 1010.57 1010.07 1009.69 1009.50 1009.14 1009.03 1009.25 1009.50 1010.04 1010.11 1010.16 1010.13 1010.21 1009.96 1009.87 1009.42 1008.79 1008.23 1007.59 1007.33 1007.21 1007.46 1007.71 1008.06 1008.33 1008.86 1009.43 1010.12 1010.69 1011.23 1011.93 1012.67 1013.39 1014.31 1015.24 1015.81 1016.45 1016.99 1017.74
1012.48 1011.80 1011.21 1011.12 1010.81 1010.50 1010.05 1009.72 1009.41 1009.32 1009.29 1009.70 1010.03 1010.29 1010.43 1010.34 1010.07 1009.72 1009.25 1008.98 1008.46 1008.01 1007.53 1007.12 1007.02 1007.14 1007.17 1007.62 1008.20 1008.61 1009.20 1009.77 1010.30 1010.88 1011.51 1012.13 1012.90 1013.65 1014.59 1015.63 1016.26 1016.49 1016.90 1017.26
Wind_Speed
15 16 15 15 16 23 8 3 2 2 2 5 2 3 6 4 3 3 2 4 4 1 3 3 1 2 4 1 3 1 1 3 4 8 2 5 2 0 4 6 4 2 4 8
14 14 12 14 12 12 3 2 3 5 4 3 3 6 5 4 4 4 2 2 2 3 3 2 3 3 1 3 3 3 1 3 5 10 8 7 6 5 1 3 4 6 6 8
13 11 12 12 10 7 3 2 2 4 3 0 5 2 5 4 5 5 4 4 4 4 3 3 3 3 4 6 2 7 3 3 4 6 4 1 4 8 4 5 5 4 7 7
12 11 11 11 11 9 3 1 4 2 2 2 1 3 3 10 4 2 2 4 2 7 3 1 3 2 5 4 3 2 4 2 2 4 1 6 0 5 9 6 3 6 4 6
10 10 9 11 11 7 2 1 2 5 3 3 3 2 4 6 4 6 1 7 3 6 8 8 6 5 4 2 6 6 6 5 3 2 2 8 3 10 6 6 7 6 6 5
11 9 8 10 10 4 2 2 3 3 4 3 0 3 3 7 9 3 8 10 6 5 4 8 4 6 6 3 2 2 2 3 4 4 6 9 5 5 6 1 5 4 5 3
11 10 7 7 6 3 1 2 1 2 4 2 3 4 8 5 4 8 5 6 7 6 4 6 6 6 3 8 5 1 3 4 3 2 4 5 5 2 4 2 2 6 5 5
13 10 7 7 5 3 1 1 2 1 3 4 6 6 6 4 2 4 5 2 5 5 6 5 5 6 5 4 4 7 2 5 4 3 1 5 3 3 1 2 3 3 3 8
11 11 10 7 5 5 2 2 3 1 1 6 4 4 3 0 2 2 1 3 4 8 5 4 3 2 2 3 7 2 3 8 6 2 3 7 6 1 2 4 4 2 4 7
12 10 10 10 6 6 2 3 4 2 2 6 2 1 3 2 1 2 1 2 2 4 3 3 2 2 0 1 1 1 4 4 4 2 2 6 6 5 2 3 7 5 3 9
11 10 11 9 7 6 3 3 4 4 2 7 5 6 2 4 1 3 4 5 4 4 4 3 3 3 5 2 3 3 4 5 3 2 1 3 1 2 4 6 2 7 4 5
11 9 10 9 6 6 5 3 1 2 3 7 3 12 16 11 16 3 1 5 5 5 6 2 4 2 2 4 2 2 2 7 5 7 6 6 5 4 3 4 4 4 7 6
10 10 9 9 6 6 7 2 2 1 3 5 2 10 6 4 9 7 3 2 5 3 4 5 3 3 5 4 6 3 3 3 2 3 2 1 3 4 5 2 4 6 4 10
10 9 9 6 5 6 6 2 2 1 2 2 8 3 9 2 3 7 6 7 5 6 3 3 3 3 4 5 3 4 5 6 3 1 2 4 3 3 6 5 6 7 6 7
9 8 5 4 6 5 4 2 4 4 1 3 6 9 9 7 7 7 4 7 5 3 3 3 3 2 3 1 2 1 5 7 5 7 8 6 7 4 5 9 6 6 7 5
7 5 4 5 5 1 1 3 2 6 4 0 4 5 5 3 4 9 6 5 4 4 5 3 2 3 4 4 2 6 5 4 7 6 7 3 7 7 3 10 7 6 7 9
5 4 4 6 4 2 3 3 1 4 2 1 5 6 5 3 3 3 3 4 3 4 2 1 3 1 5 3 3 5 5 5 5 6 10 5 4 7 7 10 7 7 7 7
4 5 5 4 3 3 5 5 14 5 1 1 2 6 5 4 1 3 1 3 3 3 4 1 2 2 2 1 6 5 2 2 6 7 4 7 7 7 7 9 11 10 7 7
5 4 3 2 1 2 5 3 12 3 2 2 2 2 4 6 2 2 4 3 2 1 3 3 4 0 4 7 8 6 8 9 9 5 8 9 8 9 9 10 10 12 6 8
3 0 1 3 5 6 5 2 3 1 2 0 3 1 4 2 3 3 4 2 3 2 5 3 4 5 5 6 9 8 9 8 10 8 6 5 5 8 9 9 12 13 11 8
1 2 3 4 7 2 1 2 3 1 2 3 5 5 2 2 2 2 2 3 1 3 4 5 3 3 6 6 9 7 9 11 10 11 10 11 13 9 8 7 11 13 14 13
1 2 3 3 1 2 3 3 1 4 6 3 4 5 4 2 3 4 4 1 1 4 1 2 3 6 7 8 9 8 8 9 9 7 9 8 11 12 12 12 11 12 10 11
1 2 1 3 1 2 5 6 4 3 4 3 2 1 3 1 3 4 4 4 7 1 1 4 6 4 4 8 6 6 6 7 7 7 6 9 9 9 13 11 7 11 11 9
1 1 1 3 4 5 5 4 3 4 1 1 3 3 3 1 3 3 5 3 3 0 2 6 4 7 8 8 6 7 9 9 9 9 10 12 14 10 9 12 13 13 12 8
2 1 4 7 5 3 3 4 1 3 1 2 2 3 3 1 3 1 4 3 4 6 5 6 6 9 7 8 6 8 9 8 7 9 11 12 14 14 10 9 10 11 11 9
2 3 3 3 1 4 2 2 2 2 1 2 5 2 3 1 3 4 6 4 6 5 5 4 2 5 7 7 7 8 8 9 9 9 12 13 14 15 14 10 11 11 12 11
3 4 3 3 4 5 3 2 3 2 2 3 3 4 5 3 3 3 4 5 4 4 4 3 4 6 9 8 7 8 8 9 10 11 11 11 9 13 14 13 8 8 8 9
Wind_Direction
334 337 336 337 344 339 40 350 33 318 141 65 58 185 204 251 296 33 333 108 142 117 81 39 9 288 240 29 306 109 133 155 267 230 285 242 108 133 139 131 220 197 174 268
334 336 332 337 350 22 343 5 266 315 54 170 252 280 275 247 271 224 224 135 106 63 112 149 234 275 313 2 324 278 141 14 350 348 1 20 36 326 312 130 74 197 147 265
331 327 332 334 341 359 92 17 6 322 60 345 152 295 275 273 302 235 172 100 108 106 85 33 233 277 303 336 277 316 100 111 164 189 164 295 348 325 321 136 117 215 220 276
324 328 327 334 333 346 111 106 263 200 285 303 314 188 272 282 266 319 111 36 160 158 128 243 224 244 300 286 330 260 132 129 274 251 129 117 113 17 21 48 52 194 276 225
314 325 325 330 332 354 86 151 359 347 287 305 328 40 239 253 253 172 69 128 191 161 153 180 204 178 190 250 340 4 344 170 95 288 291 61 54 3 76 58 345 301 357 26
310 312 327 329 335 31 18 311 315 116 275 307 62 221 281 273 141 350 166 159 126 117 202 203 204 156 145 135 121 309 45 113 99 266 341 58 343 342 10 81 18 294 23 292
307 309 313 315 316 17 135 265 19 61 270 257 237 291 292 232 193 143 179 134 121 226 77 89 62 49 70 47 32 155 154 92 40 194 339 168 231 201 266 121 43 349 60 72
298 305 303 299 285 277 215 235 74 153 263 259 294 293 294 8 153 128 146 194 174 107 59 58 35 351 38 4 26 356 219 111 84 129 82 303 310 270 143 136 20 324 67 118
296 300 303 296 274 238 217 225 162 169 165 244 316 307 328 216 319 24 61 48 109 73 82 71 108 169 178 339 339 64 33 66 106 78 150 203 232 216 214 98 340 125 119 113
297 299 297 297 282 216 201 259 190 122 202 268 326 275 283 9 318 167 338 167 54 66 75 80 135 207 276 191 193 336 16 10 100 144 219 287 255 255 36 117 222 140 179 135
294 293 290 288 273 213 182 260 183 183 239 277 258 289 280 343 117 161 229 57 355 50 74 122 192 142 215 118 238 199 172 139 191 88 131 275 256 0 202 214 112 137 153 108
297 289 285 282 256 212 180 269 290 160 194 252 282 266 257 231 233 202 307 175 166 173 94 117 123 126 137 171 217 338 228 184 182 172 212 248 264 212 284 160 125 143 134 147
299 297 289 283 207 222 200 228 268 17 267 285 357 257 305 220 208 178 146 287 164 153 171 149 149 150 134 161 235 203 266 138 153 106 339 357 85 5 11 41 148 135 116 131
298 291 286 269 212 246 214 194 205 141 257 252 280 297 271 159 240 205 210 145 72 100 75 100 134 160 181 198 175 156 196 128 159 60 93 76 314 265 154 98 98 111 131 130
289 287 279 269 262 245 249 209 220 204 163 240 280 312 275 248 192 214 123 110 104 95 69 78 228 172 118 339 79 243 184 171 149 220 194 154 194 198 184 114 106 124 132 126
287 279 296 272 254 230 90 301 208 194 193 193 303 280 285 313 167 143 135 122 100 95 134 197 242 235 110 106 188 257 239 197 176 195 169 148 156 186 191 124 136 131 100 133
273 273 273 264 268 139 188 197 15 123 133 200 306 301 274 294 118 77 83 47 107 111 125 173 177 273 90 110 166 258 283 215 194 147 110 74 183 169 157 121 111 99 81 85
269 275 280 284 269 278 298 238 217 144 197 208 258 270 339 357 126 105 21 90 42 12 150 77 155 17 58 164 238 246 239 133 125 155 79 141 121 109 107 104 115 88 88 101
304 295 302 33 143 228 240 283 138 138 154 221 157 228 265 352 33 99 46 86 88 322 147 227 106 359 214 219 191 195 177 177 166 129 118 123 127 142 122 116 109 112 106 102
308 335 90 267 222 267 136 275 93 112 266 31 224 238 270 15 10 22 89 39 153 153 245 85 137 228 255 237 204 179 181 171 137 111 106 110 126 159 154 156 150 138 138 117
194 211 229 255 306 82 46 143 143 169 246 213 229 188 206 303 81 42 352 137 148 150 242 159 205 251 226 203 207 213 189 173 188 170 171 171 168 167 137 138 145 142 139 140
255 272 288 282 35 49 164 194 288 176 221 218 184 208 174 175 92 85 320 33 281 211 164 124 247 246 228 178 193 198 189 169 175 165 166 166 156 155 148 143 138 140 130 133
229 223 277 55 252 76 191 193 239 216 215 193 153 108 136 70 69 96 116 157 236 3 92 227 227 231 225 199 175 186 186 185 159 150 143 132 124 132 138 127 127 128 126 128
245 186 38 184 246 240 197 192 206 252 107 121 133 121 132 140 89 145 135 187 117 103 254 233 230 225 223 193 182 144 179 177 165 146 137 138 134 122 127 135 138 133 135 134
236 183 222 220 234 268 247 254 284 252 246 137 78 62 105 150 113 188 114 159 215 203 227 226 233 221 174 175 164 161 160 160 143 136 136 134 134 135 127 130 128 126 127 131
237 234 264 259 350 288 295 274 297 280 314 126 62 45 43 340 162 162 199 182 201 230 215 249 251 190 178 167 167 150 141 145 142 142 141 140 143 148 142 130 135 140 142 147
227 243 228 244 247 236 249 223 209 234 129 82 89 169 193 331 258 230 183 201 222 244 261 246 216 207 185 148 148 136 138 137 140 138 145 141 126 129 132 141 170 152 158 150